Retour au catalogue

SL-8 DEB

ActifLEO
NORAD 18681·DEBRIS·🇷🇺 Russia

Lancé Jun 9, 1987 depuis Plesetsk Cosmodrome

Loading…

Prochains Passages (prochaines 24 heures)

TLE

FraisSource: Space-Track

Époque: Sep 14, 2026, 11:14 UTC

1 18681U 87049D   26257.46855374  .00000810  00000-0  21613-3 0  9991
2 18681  74.0267  69.2600 0016105 265.0071 124.9022 14.49995850 58512

Suivez SL-8 DEB en temps réel avec AllMySat

Download on the App Store